Weather in Jaworzno

Poland     50°11′17″N   19°16′20″E
temp.,
°C
wind,
m/s
gust,
m/s
humid.,
%
clouds,
%
prec.,
mm/h
press.,
hPa
HPBL,
m
17 october, sun
sun1723:00+9wnw2253100 0.0 1023126
02:00+8wnw115620 0.0 102219
05:00+6s11629 0.0 102211
08:00+6s12675 0.0 102279
11:00+10s22515 0.0 1022660
14:00+12sw234464 0.0 10201119
17:00+11wsw2448100 0.0 1020690
20:00+10wsw2558100 0.0 1021231
18 october, mon
mon1823:00+9wsw2463100 0.0 1022138
02:00+8w2467100 0.0 1022199
05:00+7w2571100 0.0 1023212
08:00+8w2570100 0.0 1024273
11:00+8w2572100 0.1 1025380
14:00+9wsw256789 0.1 1024347
17:00+10wsw256575 0.0 1024357
20:00+10sw2768100 0.0 1024251
19 october, tue
tue1923:00+10w2768100 0.0 1025289
02:00+10wnw1476100 0.1 1026215
05:00+9ne1182100 0.0 102796
08:00+9ese1282100 0.1 1027149
11:00+9se2383100 0.0 1028270
14:00+11se237544 0.0 1027326
17:00+11se24725 0.0 1026250
20:00+9se2684100 0.0 1026158
20 october, wed
wed2023:00+9sse248778 0.0 102599
02:00+8sse2582100 0.0 1024119
05:00+8s267896 0.0 1022139
08:00+9s397490 0.0 1021250
11:00+12ssw31161100 0.0 1019473
14:00+16sw41146100 0.0 1017771
17:00+15sw41149100 0.0 1014605
20:00+13sw3956100 0.0 1013347
21 october, thu
thu2123:00+11sw31059100 0.0 1012345
02:00+10ssw31165100 0.0 1011368
05:00+11wsw41275100 0.6 1010567
08:00+10ssw31384100 3.0 1009525
11:00+14wsw7157298 0.1 10101265
14:00+14wsw6126795 0.6 10101353
17:00+14sw6125371 0.0 10101453
20:00+12ssw5137399 0.0 1009800